AO-07 1 07530U 74089B 20296.45433125 -.00000031 00000-0 87368-4 0 9990 2 07530 101.8182 265.5592 0012407 118.3750 353.1519 12.53645631101905 UO-11 1 14781U 84021B 20296.45892952 .00000124 00000-0 21309-4 0 9995 2 14781 097.5909 302.1173 0009450 136.6416 223.5543 14.83201248950656 LO-19 1 20442U 90005G 20296.45508554 .00000027 00000-0 26382-4 0 9995 2 20442 098.7062 244.2100 0012454 137.0186 223.1973 14.32963833606743 HUBBLE 1 20580U 90037B 20296.18442410 .00000602 00000-0 25597-4 0 9997 2 20580 028.4691 201.4194 0002697 021.0432 106.2264 15.09454491475227 MET-2/21 1 22782U 93055A 20296.48862471 .00000017 00000-0 16846-5 0 9990 2 22782 082.5461 132.7848 0021371 237.4090 183.2558 13.83829356370618 AO-27 1 22825U 93061C 20296.42950918 -.00000014 00000-0 12786-4 0 9999 2 22825 098.9267 302.0970 0008649 014.6980 345.4452 14.30095244411968 IO-26 1 22826U 93061D 20296.45606651 -.00000005 00000-0 15882-4 0 9995 2 22826 098.9208 302.0570 0008941 002.3863 357.7360 14.30431996412209 FO-29 1 24278U 96046B 20296.27782142 -.00000039 00000-0 -54050-5 0 9993 2 24278 098.5890 029.5399 0351080 046.6039 316.3772 13.53100028194282 NOAA-15 1 25338U 98030A 20296.78674785 .00000019 00000-0 26722-4 0 9995 2 25338 98.7084 321.1367 0009406 250.3255 109.6910 14.25994800167375 GO-32 1 25397U 98043D 20296.44079098 -.00000001 00000-0 18839-4 0 9995 2 25397 098.7398 237.0302 0002275 068.0975 292.0445 14.23692671157628 ISS 1 25544U 98067A 20296.89141983 -.00000138 00000-0 55955-5 0 9999 2 25544 51.6446 76.5837 0001641 48.7234 61.5686 15.49320419251811 NO-44 1 26931U 01043C 20296.06009726 -.00000029 00000-0 20769-4 0 9998 2 26931 067.0511 175.6697 0006747 276.1645 083.8687 14.30591342995251 SO-50 1 27607U 02058C 20296.57259815 .00000030 00000-0 24662-4 0 9995 2 27607 064.5564 345.7105 0033395 132.1258 228.2692 14.75669684959486 CO-55 1 27844U 03031E 20296.48581288 .00000050 00000-0 42040-4 0 9994 2 27844 098.6834 302.3098 0010721 051.9314 308.2829 14.22262495898154 CO-57 1 27848U 03031J 20296.47911679 .00000036 00000-0 35941-4 0 9994 2 27848 098.6898 302.8691 0010735 063.5410 296.6868 14.21846253897996 RS-22 1 27939U 03042A 20296.80769588 .00000116 00000-0 29391-4 0 9995 2 27939 98.1102 70.0729 0011953 315.1493 44.8755 14.66896727912688 NOAA-18 1 28654U 05018A 20296.80594756 .00000101 00000-0 79149-4 0 9998 2 28654 99.0292 354.3351 0013595 229.5449 130.4538 14.12548817794982 CO-58 1 28895U 05043F 20296.35222942 .00000181 00000-0 43711-4 0 9992 2 28895 098.0282 069.2880 0015710 238.2018 121.7655 14.63811779799407 Falconsat-3 1 30776U 07006E 20296.12706216 .00004080 00000-0 10627-3 0 9991 2 30776 035.4336 189.2421 0003755 261.9378 098.0923 15.38417599756351 CO-65 1 32785U 08021C 20296.45083634 .00000335 00000-0 41590-4 0 9992 2 32785 097.5857 278.9629 0014504 074.0945 286.1869 14.88534373676762 AAUSAT2 1 32788U 08021F 20296.47785946 .00001065 00000-0 10182-3 0 9995 2 32788 097.4958 295.3636 0011470 357.3169 002.7989 14.95187770678299 DO-64 1 32789U 08021G 20296.28264852 .00001434 00000-0 96984-4 0 9998 2 32789 097.4061 334.5861 0010660 236.2820 123.7393 15.08020459681023 CO-66 1 32791U 08021J 20296.43269568 .00000428 00000-0 48484-4 0 9991 2 32791 097.5510 285.0416 0014391 044.3624 315.8746 14.91138195677307 RS-30 1 32953U 08025A 20296.72174616 .00000037 00000-0 19437-3 0 9997 2 32953 82.5064 198.7628 0019326 133.2991 226.9704 12.43098610563445 PRISM 1 33493U 09002B 20296.44364775 .00000735 00000-0 69044-4 0 9994 2 33493 098.1553 242.0782 0015160 359.1532 000.9660 14.97182727638704 NOAA-19 1 33591U 09005A 20296.74825642 .00000017 00000-0 34446-4 0 9995 2 33591 99.1966 305.4145 0014931 79.9811 280.3044 14.12435662603361 TISAT-1 1 36799U 10035E 20296.44168145 .00000668 00000-0 72925-4 0 9994 2 36799 098.2026 111.6824 0010964 274.6583 085.3382 14.91453190557857 JUGNU 1 37839U 11058B 20296.22872896 .00000335 00000-0 36732-4 0 9994 2 37839 019.9606 233.9446 0018779 346.3908 161.1347 14.12692164466846 SRMSAT 1 37841U 11058D 20296.41860983 .00000339 00000-0 41032-4 0 9995 2 37841 019.9724 299.7488 0011760 197.5958 312.5411 14.10676872466086 AO-71 1 37854U 11061E 20296.40558871 .00001226 00000-0 68525-4 0 9994 2 37854 101.7138 093.2651 0157400 044.1754 317.1904 15.07625828490606 HRBE 1 37855U 11061F 20296.56645407 .00001565 00000-0 83787-4 0 9997 2 37855 101.7267 090.6011 0169891 057.5920 304.1602 15.06660766490342 HORYU-2 1 38340U 12025D 20296.12601089 .00000200 00000-0 37040-4 0 9994 2 38340 098.2663 352.6384 0011329 003.4729 356.6557 14.75904209453646 RS-40 1 38735U 12041C 20296.42527506 .00000030 00000-0 14546-3 0 9990 2 38735 082.4728 281.4835 0015839 244.1828 115.7618 12.42581069373623 BEESAT-3 1 39135U 13015F 20296.49857995 .00001459 00000-0 79689-4 0 9998 2 39135 064.8657 251.0371 0027002 222.5189 137.3847 15.18442199414509 BEESAT-2 1 39136U 13015G 20296.26768394 .00001827 00000-0 98403-4 0 9992 2 39136 064.8745 257.2189 0035198 266.4812 093.2289 15.17843612414759 ZACUBE-1 1 39417U 13066B 20296.49316681 .00000258 00000-0 38597-4 0 9998 2 39417 097.5736 287.5018 0057753 220.2576 139.4354 14.81337318373848 TRITON-1 1 39427U 13066M 20296.73233550 .00000439 00000-0 77325-4 0 9992 2 39427 97.7421 250.6917 0114470 31.6154 329.1861 14.68066463370536 GOMX-1 1 39430U 13066Q 20296.71224360 .00000171 00000-0 39641-4 0 9995 2 39430 97.7978 227.5935 0151356 143.2251 217.9462 14.59450079368361 LO-74 1 39440U 13066AA 20296.52830886 .00000313 00000-0 50432-4 0 9990 2 39440 097.6458 272.1000 0078640 288.0979 071.1678 14.76074749371326 AO-73 1 39444U 13066AE 20296.48485715 .00000324 00000-0 45967-4 0 9995 2 39444 097.5667 289.7886 0057000 211.7014 148.0764 14.82203609372188 SPROUT 1 39770U 14029E 20296.86127174 .00000609 00000-0 72589-4 0 9997 2 39770 97.9045 42.6610 0007995 269.9279 90.1032 14.87916187348007 DUCHIFAT-1 1 40021U 14033M 20296.59160928 .00000483 00000-0 54714-4 0 9997 2 40021 097.9484 228.6409 0011657 224.4978 135.5305 14.91009953344832 NANOSATCBR1 1 40024U 14033Q 20296.48450772 .00000573 00000-0 65109-4 0 9997 2 40024 097.9310 224.4880 0010929 230.0533 129.9725 14.90163499344154 DTUSAT-2 1 40030U 14033W 20296.31398726 .00000346 00000-0 42994-4 0 9991 2 40030 097.9030 217.7914 0010576 234.8152 125.2075 14.88782498344396 EO-80 1 40032U 14033Y 20296.60597246 .00000413 00000-0 50246-4 0 9997 2 40032 097.9036 218.0861 0010547 234.7343 125.2888 14.88734295343908 ANTELSAT 1 40034U 14033AA 20296.45561815 .00000251 00000-0 44500-4 0 9991 2 40034 097.6986 145.9705 0057590 309.3008 050.3102 14.74314766340593 VELOX-1 1 40057U 14034E 20296.71623533 .00000331 00000-0 53645-4 0 9991 2 40057 98.2979 77.3089 0012081 97.9825 262.2758 14.77950902340438 DAURIA DX 1 1 40071U 14037C 20296.70408328 .00000093 00000-0 19476-4 0 9991 2 40071 98.4618 122.1830 0009630 88.9712 271.2604 14.81401392340091 HODOYOSHI-1 1 40299U 14070B 20296.69488704 .00000745 00000-0 33367-4 0 9993 2 40299 97.3128 10.4214 0014386 104.3308 358.5492 15.24220126331197 CHUBUSAT-1 1 40300U 14070C 20296.43352050 .00000851 00000-0 39262-4 0 9990 2 40300 97.2753 1.7215 0020812 123.4406 247.8300 15.22673694330837 QSAT-EOS 1 40301U 14070D 20296.70578935 .00002139 00000-0 81823-4 0 9994 2 40301 97.2821 8.1970 0026478 96.8228 3.4902 15.27350058331355 FIREBIRD FU3 1 40377U 15003B 20296.48745706 .00003270 00000-0 12685-3 0 9997 2 40377 099.0854 022.6482 0121543 249.4668 109.3485 15.20534953316600 FIREBIRD FU4 1 40378U 15003C 20296.66763777 .00003527 00000-0 13631-3 0 9993 2 40378 99.0857 22.9731 0121693 248.6945 110.1258 15.20556940316641 GRIFEX 1 40379U 15003D 20296.22457704 .00001808 00000-0 78785-4 0 9998 2 40379 099.0902 013.5930 0130804 277.9432 080.6969 15.16751443316066 NO-84 1 40654U 15025D 20295.45456555 .00024272 00000-0 25257-3 0 711 2 40654 54.9829 78.6761 0109689 154.5443 206.1112 15.57247072188631 DEORBITSAIL 1 40719U 15032E 20296.38524285 .00000461 00000-0 72270-4 0 9991 2 40719 097.8522 181.7884 0016601 153.0970 207.1105 14.77096898284832 NUDT-PHONESAT 1 40900U 15049B 20296.74374655 .00002544 00000-0 10592-3 0 9997 2 40900 97.4302 306.6263 0010681 254.4357 223.4671 15.24616108282586 XW-2A 1 40903U 15049E 20296.71860046 .00002492 00000-0 57238-4 0 9992 2 40903 97.2726 345.6889 0013554 153.5822 300.5533 15.43579060286104 XW-2C 1 40906U 15049H 20296.74952231 .00000541 00000-0 31407-4 0 9999 2 40906 97.4817 296.2628 0013195 296.0818 117.9487 15.16224588281544 XW-2D 1 40907U 15049J 20296.73402234 .00000993 00000-0 54396-4 0 9995 2 40907 97.4802 295.9770 0012585 292.8695 181.5003 15.16479934281562 LILACSAT-2 1 40908U 15049K 20296.73315964 .00000642 00000-0 38768-4 0 9995 2 40908 97.4969 294.1542 0014509 305.9859 168.0282 15.14135462281259 XW-2E 1 40909U 15049L 20296.78575884 .00001220 00000-0 62078-4 0 9994 2 40909 97.4667 299.7110 0011911 283.0314 163.9592 15.18681831281857 XW-2F 1 40910U 15049M 20296.77712775 .00001161 00000-0 60041-4 0 9999 2 40910 97.4713 298.7803 0012916 279.9929 164.9794 15.18189082281655 XW-2B 1 40911U 15049N 20296.72446126 .00000916 00000-0 50547-4 0 9996 2 40911 97.4808 296.6644 0012514 293.9534 181.3636 15.16403094281459 DCBB 1 40912U 15049P 20296.70848078 .00001222 00000-0 58822-4 0 9992 2 40912 97.4494 302.9772 0013042 252.6203 230.1022 15.20614388282050 TW-1C 1 40926U 15051B 20296.70771836 .00045215 00000-0 33900-3 0 9996 2 40926 97.0670 349.7071 0003189 345.9661 111.5529 15.72507736286977 TW-1A 1 40928U 15051D 20296.71124447 .00003835 00000-0 87767-4 0 9992 2 40928 97.1006 321.4337 0012171 82.0041 11.3361 15.43322682284991 IO-86 1 40931U 15052B 20296.10744213 .00000838 00000-0 27550-4 0 9993 2 40931 5.9985 152.2222 0013634 273.2157 353.5917 14.76647882274004 LQSat 1 40958U 15057A 20296.13597695 .00000023 00000-0 11092-4 0 9990 2 40958 097.8385 355.2908 0019550 102.2924 258.0474 14.73134489271150 ATHENOXAT-1 1 41168U 15077C 20296.10523449 .00002726 00000-0 10626-3 0 9992 2 41168 015.0089 212.0504 0013388 104.5137 016.2018 15.14663225268574 ChubuSat-2 1 41338U 16012B 20296.30888566 .00000488 00000-0 31122-4 0 9995 2 41338 031.0030 260.0315 0013729 293.2224 066.6966 15.00348675256800 ChubuSat-3 1 41339U 16012C 20296.31751932 .00000335 00000-0 19182-4 0 9996 2 41339 31.0125 257.4652 0013512 303.2543 206.6521 15.00508631256809 Horyu-4 1 41340U 16012D 20296.20256578 .00000750 00000-0 49805-4 0 9998 2 41340 031.0048 244.5575 0013807 326.4544 033.5217 15.01589539256942 OUFTI-1 1 41458U 16025C 20296.56633058 .00003805 00000-0 18967-3 0 9991 2 41458 098.1163 053.9825 0163128 141.3280 219.9761 15.07286913246621 e-st@r-II 1 41459U 16025D 20296.84914853 .00003021 00000-0 15260-3 0 9991 2 41459 98.1171 53.5888 0165008 142.6859 218.5966 15.06822513246624 AAUSAT4 1 41460U 16025E 20296.85193480 .00004202 00000-0 20358-3 0 9995 2 41460 98.1157 56.3929 0153474 130.0768 231.4013 15.09312593246858 LO-87 1 41557U 16033B 20296.75678078 .00001550 00000-0 58793-4 0 9999 2 41557 97.4017 26.1622 0013481 4.6001 95.4868 15.28327884245211 NuSat2 1 41558U 16033C 20296.75253613 .00001780 00000-0 63163-4 0 9996 2 41558 97.4085 28.9500 0012525 0.9401 101.6056 15.30346589245353 Lapan A3 1 41603U 16040E 20296.80579125 .00000230 00000-0 13774-4 0 9992 2 41603 97.2938 346.2544 0014968 112.8625 358.6652 15.19886591240481 Swayam 1 41607U 16040J 20296.34873657 .00002228 00000-0 92980-4 0 9997 2 41607 097.3032 352.6512 0014703 098.7406 261.5498 15.24597425240754 Pratham 1 41783U 16059A 20296.13132987 .00000056 00000-0 19949-4 0 9994 2 41783 098.0014 347.9303 0032172 277.4748 082.2800 14.63080374217400 AlSat 1N 1 41789U 16059G 20296.85921455 .00000080 00000-0 24116-4 0 9994 2 41789 98.0069 351.7572 0026935 261.3568 98.4575 14.64350389217673 ScatSat 1 41790U 16059H 20296.83980629 -.00009069 00000-0 -22958-2 0 9990 2 41790 98.4027 333.5887 0003922 239.7741 120.2374 14.50779102215697 TY-1 1 41844U 16066D 20296.73848272 .00001000 00000-0 42841-4 0 9994 2 41844 97.4041 303.5008 0013139 254.9362 222.7555 15.25063287219666 Pegasus-1 1 41846U 16066F 20296.15252313 .00000350 00000-0 63730-4 0 9994 2 41846 098.6470 347.4463 0366093 215.6842 141.9370 14.37838898207176 CAS-2T 1 41847U 16066G 20296.18459458 .00000120 00000-0 28909-4 0 9991 2 41847 098.6390 347.8832 0365075 211.0636 146.8504 14.38100516207636 EO-88 1 42017U 17008BX 20296.18126705 .00002315 00000-0 90471-4 0 9995 2 42017 097.3473 001.8325 0004940 221.9954 138.0906 15.26863789204881 CAS-4B 1 42759U 17034B 20296.64290117 .00000327 00000-0 33229-4 0 9996 2 42759 43.0193 48.1938 0008948 111.8295 20.0094 15.09914520185193 CAS-4A 1 42761U 17034D 20296.64695512 .00000327 00000-0 33211-4 0 9998 2 42761 43.0191 47.3848 0009446 113.0702 20.1501 15.09993856185199 UCLSat 1 42765U 17036A 20296.36741091 .00001824 00000-0 78518-4 0 9999 2 42765 097.2861 347.1166 0009668 303.7893 056.2423 15.23816463185903 NIUSat 1 42766U 17036B 20296.10891997 .00001306 00000-0 60153-4 0 9994 2 42766 097.2857 343.9851 0013753 297.9614 062.0230 15.21944245184952 LituanicaSAT 2 1 42768U 17036D 20296.55414782 .00003317 00000-0 13729-3 0 9998 2 42768 097.2921 347.4896 0012717 289.4274 070.5589 15.24560266185201 Aalto 1 1 42775U 17036L 20296.14970252 .00001062 00000-0 49367-4 0 9993 2 42775 097.2835 344.3549 0012192 297.4189 062.5807 15.22029450184942 URSA MAIOR 1 42776U 17036M 20296.12315835 .00001199 00000-0 55053-4 0 9992 2 42776 097.2847 344.6702 0011992 297.1768 062.8246 15.22230948184954 Max Valier Sat 1 42778U 17036P 20296.30193757 .00001371 00000-0 61459-4 0 9990 2 42778 097.2905 346.3426 0010545 299.7478 060.2709 15.22843933185032 Pegasus 1 42784U 17036V 20296.09069524 .00001608 00000-0 70228-4 0 9994 2 42784 097.2866 346.4851 0010290 305.9237 054.1045 15.23486855185052 NUDATSat 1 42787U 17036Y 20296.55882815 .00001821 00000-0 75867-4 0 9995 2 42787 097.2915 348.6450 0010478 304.7115 055.3134 15.24933918185060 SUCHAI 1 1 42788U 17036Z 20296.39561948 .00001999 00000-0 85102-4 0 9998 2 42788 097.2875 347.4923 0009770 302.6486 057.3808 15.24089999185217 SKCUBE 1 42789U 17036AA 20296.12737565 .00001782 00000-0 76602-4 0 9995 2 42789 097.2868 347.0430 0009681 304.2056 055.8263 15.23907959185088 VZLUSAT 1 1 42790U 17036AB 20296.35237924 .00002358 00000-0 97512-4 0 9999 2 42790 097.2897 348.4350 0009104 300.0634 059.9701 15.24913989185188 VENTA 1 1 42791U 17036AC 20296.36596857 .00001877 00000-0 80572-4 0 9997 2 42791 097.2866 347.3093 0009340 304.1251 055.9100 15.23882292185112 Robusta 1B 1 42792U 17036AD 20296.39319515 .00001919 00000-0 81777-4 0 9990 2 42792 097.2872 347.5936 0009231 303.5681 056.4675 15.24113462185151 D-SAT 1 42794U 17036AF 20296.32235696 .00000165 00000-0 19886-4 0 9996 2 42794 097.4837 322.6314 0124662 301.8707 057.0430 14.91342386181600 TechnoSat 1 42829U 17042E 20296.24616928 .00000086 00000-0 13989-4 0 9994 2 42829 097.4993 171.9360 0013118 217.4156 142.6151 14.91146054178185 QIKCOM-1 1 42983U 98067NF 20296.49238319 .00006841 00000-0 80652-4 0 9998 2 42983 51.6394 24.6454 0003307 168.0989 192.0084 15.62669723170149 AO-91 1 43017U 17073E 20296.58026312 .00001353 00000-0 10992-3 0 9995 2 43017 097.7149 203.8659 0256594 356.4313 003.5060 14.79080305157951 EcAMSat 1 43019U 98067NG 20296.46299437 .00013376 00000-0 12054-3 0 9995 2 43019 51.6416 5.7893 0002770 156.0966 204.0159 15.68535748252713 PICSAT 1 43132U 18004X 20296.18655261 .00001983 00000-0 82957-4 0 9995 2 43132 097.4361 006.6956 0008647 337.2889 022.7964 15.24737220154364 AO-92 1 43137U 18004AC 20296.44887527 .00001558 00000-0 66524-4 0 9991 2 43137 097.4345 006.6870 0008356 339.3641 020.7258 15.24372083154391 TianYi 2 1 43155U 18008A 20296.76618544 .00000650 00000-0 41652-4 0 9998 2 43155 97.4342 2.5400 0019055 71.0594 24.8215 15.11809415152157 Zhou Enlai 1 43156U 18008B 20296.76785751 .00000763 00000-0 48811-4 0 9993 2 43156 97.4394 2.3813 0016215 70.5718 25.1498 15.11373729152104 TianYi 6 1 43158U 18008D 20296.63350995 .00000551 00000-0 36806-4 0 9995 2 43158 97.4323 1.1482 0015036 68.2134 64.1364 15.10889371152023 S-Net D 1 43186U 18014G 20296.32804230 -.00000128 00000-0 -61016-5 0 9999 2 43186 097.6843 202.0404 0011362 153.4256 206.7550 14.96866854148670 S-Net B 1 43187U 18014H 20296.39473872 -.00000127 00000-0 -60347-5 0 9996 2 43187 097.6841 202.0806 0011373 153.0931 207.0883 14.96866465148685 S-Net A 1 43188U 18014J 20296.39462041 -.00000134 00000-0 -66312-5 0 9999 2 43188 097.6845 202.1151 0011355 153.1668 207.0143 14.96866397148685 S-Net C 1 43189U 18014K 20296.32824922 -.00000121 00000-0 -55003-5 0 9994 2 43189 097.6841 202.0097 0011360 153.4083 206.7724 14.96865561147222 FMN 1 1 43192U 18015A 20296.75990468 .00002657 00000-0 10553-3 0 9998 2 43192 97.4598 65.8011 0015869 6.0107 131.3623 15.26120679151316 Shaonian Xing 1 43199U 18015H 20296.87331152 .00001960 00000-0 78490-4 0 9998 2 43199 97.4400 63.8428 0016929 15.7621 104.9861 15.26144275151397 UBAKUSAT 1 43467U 98067NQ 20296.34247688 .00071506 00000-0 29071-3 0 9996 2 43467 051.6332 344.9063 0003093 020.5491 339.5636 15.85538935140160 EQUISat 1 43552U 98067PA 20296.43433178 .00072863 00000-0 31068-3 0 9998 2 43552 051.6296 352.3601 0002179 324.3227 035.7630 15.84541255130268 UiTMSat 1 1 43589U 98067PD 20296.37820212 .00181827 23905-4 47786-3 0 9998 2 43589 51.6300 345.7233 0005483 3.0215 357.0825 15.94425091126081 Maya 1 1 43590U 98067PE 20296.36958634 .00170978 22440-4 44931-3 0 9996 2 43590 51.6254 345.5886 0004710 7.2693 352.8382 15.94456284126013 Bhutan 1 1 43591U 98067PF 20296.44637126 .00179512 23705-4 45509-3 0 9996 2 43591 51.6309 344.7665 0005565 7.1023 353.0062 15.95098914126039 SiriusSat 1 1 43595U 98067PG 20296.70620031 .00060903 00000-0 23108-3 0 9999 2 43595 51.6275 352.4431 0002632 346.3733 13.7637 15.87024650125135 SiriusSat 2 1 43596U 98067PH 20296.46131919 .00114749 00000-0 43069-3 0 9991 2 43596 051.6269 354.6307 0003050 016.4237 343.6773 15.86999289125082 SurfSat 1 43614U 18070B 20296.54983016 .00004570 00000-0 11502-3 0 9997 2 43614 093.0289 207.2156 0013802 194.7908 165.2945 15.39871112118039 CP-7 DAVE 1 43615U 18070C 20296.52959676 .00004210 00000-0 10660-3 0 9996 2 43615 093.0292 207.1894 0013994 194.6351 165.4500 15.39687146118025 ELFIN-B 1 43616U 18070D 20296.44782420 .00006515 00000-0 15604-3 0 9992 2 43616 093.0250 207.1457 0014123 195.6001 164.4821 15.41347290118079 ELFIN-A 1 43617U 18070E 20296.52825794 .00006676 00000-0 15855-3 0 9990 2 43617 093.0304 207.8000 0013721 191.0053 169.0905 15.41608423118095 STARS-Me Mother 1 43640U 98067PQ 20296.49608720 .00025419 00000-0 21499-3 0 9991 2 43640 051.6348 022.1991 0002412 147.2804 212.8343 15.69562686116651 CubeBel 1 1 43666U 18083E 20296.43119097 .00000948 00000-0 49217-4 0 9996 2 43666 097.4804 321.6033 0013273 280.1084 186.9916 15.18496301109880 Changshagaoxin 1 43669U 18083H 20296.77455307 .00000738 00000-0 40188-4 0 9998 2 43669 97.4693 319.7450 0009206 272.5940 206.8338 15.17476910109835 Ten-Koh 1 43677U 18084G 20296.31977848 .00000162 00000-0 22510-4 0 9997 2 43677 097.8966 053.1775 0017457 099.4622 260.8569 14.90331277107830 PO-101 1 43678U 18084H 20296.72754760 .00000073 00000-0 13020-4 0 9996 2 43678 97.8989 55.2315 0011226 112.7779 247.4618 14.91661667107992 IRVINE 01 1 43693U 18088D 20296.22442965 .00003836 00000-0 15877-3 0 9994 2 43693 085.0365 353.0706 0017770 176.6640 183.4725 15.23447016108147 QO-100 1 43700U 18090A 20296.78938156 .00000130 00000-0 00000 0 0 9991 2 43700 0.0156 247.9880 0001588 328.6944 124.9937 1.00268718 7223 Reaktor Hello World 1 43743U 18096AA 20296.18415750 .00001867 00000-0 71386-4 0 9996 2 43743 097.4109 009.3665 0018824 044.1971 316.0768 15.27712910105744 MinXSS-2 1 43758U 18099A 20296.17297603 .00000120 00000-0 15926-4 0 9998 2 43758 097.6957 005.9771 0016817 123.1391 237.1446 14.95761145102894 AO-95 1 43770U 18099N 20296.40786846 .00000813 00000-0 79274-4 0 9995 2 43770 097.6944 005.5027 0015830 130.0663 230.1949 14.95068091102887 RANGE-B 1 43772U 18099Q 20296.14345427 .00001008 00000-0 96544-4 0 9990 2 43772 097.7016 005.9028 0015589 119.2648 241.0134 14.95284356102845 RANGE-A 1 43773U 18099R 20296.13346157 .00000507 00000-0 51447-4 0 9997 2 43773 097.6882 004.7741 0014934 119.0150 241.2569 14.95025142102833 MOVE-II 1 43780U 18099Y 20296.45410652 .00000396 00000-0 40865-4 0 9990 2 43780 097.6950 005.8500 0014671 127.5968 232.6587 14.95522243102895 SNUSat 2 1 43782U 18099AA 20296.41360485 .00000845 00000-0 81721-4 0 9991 2 43782 097.6942 005.7655 0014220 117.2605 243.0067 14.95329935102894 SnugLite 1 43784U 18099AC 20296.17263037 .00000040 00000-0 88272-5 0 9997 2 43784 097.6909 005.3200 0016298 125.2869 234.9879 14.95436384102874 ITASat 1 1 43786U 18099AE 20296.17571091 -.00000052 00000-0 46163-6 0 9999 2 43786 097.6962 005.7852 0016397 124.5787 235.6984 14.95397549102877 EAGLET 1 1 43790U 18099AJ 20296.40312825 .00000591 00000-0 58001-4 0 9997 2 43790 097.6948 006.3191 0014753 127.9538 232.3018 14.95776065102623 ESEO 1 43792U 18099AL 20296.15645335 .00000465 00000-0 46963-4 0 9990 2 43792 097.6924 005.8337 0014659 124.9896 235.2704 14.95635068102647 CSIM 1 43793U 18099AM 20296.15928708 .00001002 00000-0 93905-4 0 9995 2 43793 097.6930 005.9128 0014502 122.7007 237.5615 14.96181006102635 Astrocast 0.1 1 43798U 18099AS 20296.31245743 -.00000044 00000-0 11547-5 0 9998 2 43798 097.6951 006.3560 0013803 108.9779 251.2939 14.95928158102912 JO-97 1 43803U 18099AX 20296.17467665 .00000035 00000-0 82980-5 0 9996 2 43803 097.6923 005.5745 0016342 124.7564 235.5198 14.95590332102879 Suomi 100 1 43804U 18099AY 20296.37732186 .00000000 00000-0 51838-5 0 9992 2 43804 097.6920 005.7560 0016396 124.2879 235.9897 14.95574806102910 Al Farabi 2 1 43805U 18099AZ 20296.34058205 .00000616 00000-0 60391-4 0 9999 2 43805 097.6921 005.8428 0016753 125.4701 234.8090 14.95712463102916 PWSat 2 1 43814U 18099BJ 20296.23844002 .00049567 00000-0 22937-2 0 9995 2 43814 097.7932 020.1944 0007378 147.4628 212.7062 15.19935345102925 CHOMPTT 1 43855U 18104G 20296.50259477 .00001644 00000-0 67659-4 0 9999 2 43855 085.0346 091.1311 0015656 308.8128 051.1716 15.23184966102865 ISAT 1 43879U 18111D 20296.82583640 .00000572 00000-0 55576-4 0 9994 2 43879 97.6915 202.1397 0013109 171.9240 188.2211 14.96329645 97516 UWE-4 1 43880U 18111E 20296.51779916 .00000000 00000-0 50925-5 0 9995 2 43880 097.6941 202.1777 0012071 173.7427 186.3948 14.96579612099499 Sparrow 1 43881U 18111F 20296.29594272 .00001059 00000-0 97918-4 0 9998 2 43881 097.6948 202.0495 0012531 171.2008 188.9436 14.96622488097467 Lume 1 1 43908U 18111AJ 20296.39664263 .00001748 00000-0 71774-4 0 9994 2 43908 097.2513 192.5080 0022660 056.8114 303.5293 15.25292665101379 FO-98 1 43933U 19003B 20296.13099990 .00001040 00000-0 47870-4 0 9999 2 43933 097.2154 340.9260 0018618 150.8239 209.4042 15.22288640097801 FO-99 1 43937U 19003F 20296.10536451 .00001854 00000-0 77191-4 0 9990 2 43937 097.2118 342.5131 0025136 134.0124 226.3192 15.24684537097935 Delphini 1 1 44030U 98067PW 20296.55288077 .00044211 00000-0 33082-3 0 9993 2 44030 051.6336 027.0616 0001964 247.2448 112.8343 15.72210939098468 MYSat 1 1 44045U 18092F 20296.04636734 .00003905 00000-0 11539-3 0 9998 2 44045 051.6377 147.3319 0011647 064.9723 295.2468 15.37358962094756 AstroCast 0.2 1 44083U 19018F 20296.59841814 .00001271 00000-0 58921-4 0 9997 2 44083 97.4069 355.7977 0014810 87.4606 272.8326 15.21790931 86714 AISTechSat 3 1 44103U 19018AB 20296.74473220 .00001000 00000-0 44946-4 0 9991 2 44103 97.3941 356.1919 0014989 99.0295 355.5035 15.23366743 86815 AISat 1 1 44104U 19018AC 20296.21573611 .00001534 00000-0 50749-4 0 9999 2 44104 097.4522 006.6172 0059239 121.8395 238.8632 15.31281880087209 Raavana-1 1 44329U 98067QE 20296.36186182 .00019938 00000-0 24041-3 0 9990 2 44329 051.6392 056.7821 0004946 116.4037 243.7465 15.60760553076804 Uguisu 1 44330U 98067QF 20296.38251319 .00019647 00000-0 23807-3 0 9995 2 44330 51.6370 56.8848 0004939 116.0192 244.1310 15.60641671 76782 NepaliSat-1 1 44331U 98067QG 20296.35307960 .00020639 00000-0 24853-3 0 9992 2 44331 051.6371 056.6904 0004948 120.0612 240.0873 15.60770200076798 Prox-1 1 44339U 19036A 20296.38690410 .00001161 00000-0 22524-3 0 9999 2 44339 24.0011 33.0908 0011105 95.4624 264.7134 14.53169136 70614 Oculus-ASR 1 44348U 19036K 20296.37457419 .00011052 00000-0 15968-3 0 9992 2 44348 028.5170 269.5714 0358590 223.8496 133.3096 15.04688167072927 Armadillo 1 44352U 19036P 20296.25282142 .00014586 00000-0 20772-3 0 9997 2 44352 028.5322 262.2613 0342437 234.6428 122.1704 15.08393892072932 NO-104 1 44354U 19036R 20296.28294780 .00011237 00000-0 15932-3 0 9995 2 44354 028.5316 266.2837 0355040 227.7907 129.2029 15.05807243072933 NO-103 1 44355U 19036S 20296.14927111 .00025643 00000-0 34275-3 0 9999 2 44355 028.5310 250.4881 0325346 253.4587 103.0033 15.13363748073086 CP9 1 44360U 19036X 20296.11110451 .00047590 -58855-5 50459-3 0 9997 2 44360 028.5128 225.5569 0296722 295.2186 061.7928 15.23314352073204 Move-IIb 1 44398U 19038N 20296.57927911 .00001516 00000-0 89896-4 0 9996 2 44398 097.5503 256.3063 0026604 051.5511 308.8098 15.12615276071796 SONATE 1 44400U 19038Q 20296.58422579 .00000509 00000-0 33190-4 0 9998 2 44400 097.5544 256.3123 0026601 050.2820 310.0745 15.12082350071782 BeeSat 9 1 44412U 19038AC 20296.43445889 .00001574 00000-0 93622-4 0 9993 2 44412 097.5545 256.2984 0024116 056.4886 303.8644 15.12507889071461 JAISAT-1 1 44419U 19038F 20296.48030777 .00001525 00000-0 89644-4 0 9996 2 44419 097.5548 256.7048 0022885 055.3635 304.9749 15.12992679071809 LightSail-2 1 44420U 19036AC 20296.44010401 .00005578 00000-0 11693-2 0 9993 2 44420 024.0077 024.7227 0018387 068.3622 291.8827 14.56912727068841 Taurus 1 1 44530U 19059C 20296.74428816 .00000537 00000-0 16416-3 0 9995 2 44530 98.5641 19.0339 0016076 138.2287 222.0139 14.45710733 58734 Duchifat 3 1 44854U 19089C 20296.57929877 .00000426 00000-0 40745-4 0 9991 2 44854 36.9647 67.0126 0009153 3.3745 356.7058 14.99161243 47380 OPS-SAT 1 44878U 19092F 20296.46363258 .00001538 00000-0 84131-4 0 9996 2 44878 097.4708 117.6276 0012541 277.5380 082.4428 15.15713829046777 TO-108 1 44881U 19093C 20296.57890793 .00000040 00000-0 11997-4 0 9999 2 44881 097.9492 011.7042 0014830 349.9886 010.1032 14.81420797045510 FloripaSat 1 1 44885U 19093G 20296.79172153 .00000281 00000-0 42042-4 0 9992 2 44885 97.9496 12.1873 0014536 359.6583 0.4627 14.82098261 45565 RS-44 1 44909U 19096E 20296.48288434 .00000021 00000-0 48151-4 0 9997 2 44909 082.5179 270.8981 0216343 289.6495 068.1375 12.79708562038432 SwampSat-2 1 45115U 19071E 20296.49928603 .00020767 00000-0 55572-3 0 9993 2 45115 051.6399 106.0261 0012646 157.3979 202.7565 15.37926181040652 HO-107 1 45119U 19071J 20296.51785083 .00002955 00000-0 99587-4 0 9997 2 45119 051.6417 109.0952 0012567 149.6482 210.5231 15.34028550040626 Phoenix 1 45258U 98067RB 20296.47631984 .00008708 00000-0 14933-3 0 9991 2 45258 051.6413 075.5433 0006180 093.8206 266.3490 15.52030459038191 AztechSat-1 1 45261U 98067RE 20296.57915492 .00016988 00000-0 26361-3 0 9992 2 45261 051.6409 073.2414 0007274 111.7674 248.4091 15.54075445038260 QARMAN 1 45263U 98067RG 20296.42295883 .00012824 00000-0 20855-3 0 9990 2 45263 051.6410 075.1948 0007019 107.4333 252.7425 15.53035112038252 Quetzal 1 1 45598U 98067RL 20296.44276848 .00010994 00000-0 18668-3 0 9998 2 45598 51.6418 76.8294 0002852 191.9315 168.1607 15.52008579 27505 BY70-2 1 45857U 20042B 20296.74197348 .00000944 00000-0 14323-3 0 9992 2 45857 98.0063 8.8233 0009896 254.6195 105.3917 14.76372779 16472 UPMSat 2 1 46276U 20061E 20296.18428906 .00000699 00000-0 39720-4 0 9990 2 46276 097.4594 008.4448 0003022 100.0602 260.0972 15.16083023007438 AmicalSat 1 46287U 20061R 20296.18340182 .00000676 00000-0 45481-4 0 9997 2 46287 097.5146 008.3872 0002839 163.1657 196.9667 15.09989622007383 /EX